« Back
NWS Peachtree City, Ga » Text Product » GA Regional Weather Roundup


Printer-friendly Version
Current Version              Previous Versions:   1  2  3  4  5  6  7  8  9  

Regional Weather Roundup

311
ASUS42 KFFC 290003
RWRGA
WEATHER ROUNDUP FOR GEORGIA
NATIONAL WEATHER SERVICE PEACHTREE CITY GA
800 PM EDT SAT MAR 28 2015

NOTE: "FAIR" INDICATES FEW OR NO CLOUDS BELOW 12,000 FEET WITH NO
SIGNIFICANT WEATHER AND/OR OBSTRUCTIONS TO VISIBILITY.

* = USE WITH CAUTION. THE STATIONS MARKED WITH AN ASTERISK MAY NOT
REPORT WEATHER SUCH AS PRECIPITATION, FOG, OR THUNDER AND ARE NOT
QUALITY CONTROLLED BY NWS.

THE REMARK "TC" DENOTES TEMPERATURE READING IN DEGREES CELSIUS.

GAZ001>058-290100-
NORTH GEORGIA

CITY           SKY/WX    TMP DP  RH WIND       PRES   REMARKS
ATLANTA        PTCLDY    47  15  27 W9        30.17R
6HR MIN TEMP:  47; 6HR MAX TEMP:  53;

ATHENS         CLEAR     48  14  25 W10G16    30.14R
6HR MIN TEMP:  48; 6HR MAX TEMP:  56;

CHAMBLEE       CLEAR     46  14  27 N8        30.17R
6HR MIN TEMP:  46; 6HR MAX TEMP:  51;

PEACHTREE CITY CLEAR     49  12  22 NW9       30.19R
6HR MIN TEMP:  49; 6HR MAX TEMP:  54;

ROME           CLEAR     47  13  25 NW7       30.20R
6HR MIN TEMP:  47; 6HR MAX TEMP:  53;

WEST ATLANTA   CLEAR     48  12  23 NW6       30.18R
6HR MIN TEMP:  48; 6HR MAX TEMP:  53;

GAINESVILLE    CLEAR     46  12  25 N13       30.16R
6HR MIN TEMP:  46; 6HR MAX TEMP:  52;

CARTERSVILLE   CLEAR     46  16  30 CALM      30.19R
6HR MIN TEMP:  46; 6HR MAX TEMP:  52;



CITY           SKY/WX    TMP DP  RH WIND       PRES   REMARKS
DALTON*        CLEAR     45  14  29 CALM      30.21R
LAWRENCEVILLE* CLEAR     46  27  46 NW9       30.16R
MARIETTA       PTCLDY    47  13  25 VRB5      30.17R
KENNESAW*      CLEAR     46  12  25 N12       30.19R
$$

GAZ059>098-102>109-290100-
CENTRAL GEORGIA

CITY           SKY/WX    TMP DP  RH WIND       PRES   REMARKS
AUGUSTA-BUSH   CLEAR     52  18  26 W7        30.14R
6HR MIN TEMP:  52; 6HR MAX TEMP:  58;

AUGUSTA-DANIEL CLEAR     53  16  23 W6        30.13R
6HR MIN TEMP:  53; 6HR MAX TEMP:  57;

COLUMBUS       MOCLDY    52  11  19 N8        30.20R
6HR MIN TEMP:  52; 6HR MAX TEMP:  58;

MACON          CLEAR     51  17  26 NW7       30.17R
6HR MIN TEMP:  51; 6HR MAX TEMP:  58;

ROBINS AFB     CLEAR     51  17  25 NW9       30.14R


CITY           SKY/WX    TMP DP  RH WIND       PRES   REMARKS
LAGRANGE*      MOCLDY    52  19  26 N5        30.20R
SYLVANIA*      CLEAR     52  26  36 NW8       30.15R
MILLEDGEVILLE* CLEAR     50  23  34 W3        30.16R
$$

GAZ099>101-110>166-290100-
SOUTH GEORGIA

CITY           SKY/WX    TMP DP  RH WIND       PRES   REMARKS
SAVANNAH       CLEAR     53  25  33 NW6       30.14R
6HR MIN TEMP:  53; 6HR MAX TEMP:  60;

VALDOSTA       CLEAR     50  36  58 CALM      30.19R
6HR MIN TEMP:  50; 6HR MAX TEMP:  61;

ALMA           CLEAR     53  29  39 W5        30.16R
6HR MIN TEMP:  53; 6HR MAX TEMP:  59;

ST SIMONS      CLEAR     55  27  34 W7        30.15R
6HR MIN TEMP:  55; 6HR MAX TEMP:  61;

FT STEWART     CLEAR     53  28  37 W5        30.13R
ALBANY         CLOUDY    55  25  31 NW9       30.20R
HUNTER AFB     CLEAR     53  27  35 W9        30.12R
MOODY AFB      CLEAR     54  31  40 W5        30.16R
BRUNSWICK      CLEAR     54  28  37 W5        30.16R


CITY           SKY/WX    TMP DP  RH WIND       PRES   REMARKS
BAINBRIDGE*    PTCLDY    59  32  36 NW10      30.19R
MOULTRIE*      MOCLDY    55  32  41 W3        30.19R
VIDALIA*       CLEAR     54  27  35 NW5       30.15R
WAYCROSS*      CLEAR     55  34  45 NW3       30.17R
DOUGLAS*       CLEAR     55  27  33 NW5       30.18R
$$



USA.gov is the U.S. government's official web portal to all federal, state and local government web resources and services.